This is the latest recevied weather packets stored in our database for station/object WB4YDL. If no packets are shown the sender has not sent any weather packets the latest 10 day(s).
| Time | Temp. | Humidity | Pressure | Rain* | Wind** | Luminosity | Snow |
|---|---|---|---|---|---|---|---|
| 1777992564 | 15° C | 99% | 1004.5 hPa | 0 mm | - | 64 W/m² | - |
| 1777992262 | 15° C | 99% | 1004.1 hPa | 0 mm | - | 101 W/m² | - |
| 1777991959 | 15° C | 99% | 1004.1 hPa | 0 mm | - | 121 W/m² | - |
| 1777991656 | 15° C | 99% | 1004.1 hPa | 0 mm | - | 128 W/m² | - |
| 1777991353 | 15° C | 99% | 1003.4 hPa | 1.78 mm | - | 102 W/m² | - |
| 1777991051 | 15° C | 99% | 1003.5 hPa | 1.78 mm | - | 99 W/m² | - |
| 1777990748 | 15° C | 99% | 1003.3 hPa | 1.27 mm | - | 91 W/m² | - |
| 1777990445 | 15° C | 99% | 1003.5 hPa | 1.27 mm | - | 82 W/m² | - |
| 1777989838 | 15° C | 99% | 1003.9 hPa | 3.05 mm | - | 65 W/m² | - |
| 1777989535 | 15° C | 99% | 1004 hPa | 6.1 mm | - | 85 W/m² | - |
| 1777989232 | 15° C | 99% | 1004.3 hPa | 7.87 mm | - | 28 W/m² | - |
| 1777988928 | 15° C | 99% | 1004.3 hPa | 4.83 mm | - | 15 W/m² | - |
| 1777988625 | 15° C | 99% | 1004.3 hPa | 4.32 mm | - | 37 W/m² | - |
| 1777988321 | 15° C | 99% | 1004.4 hPa | 4.83 mm | - | 55 W/m² | - |
| 1777988018 | 15° C | 99% | 1004.5 hPa | 6.1 mm | - | 34 W/m² | - |
| 1777987714 | 15° C | 99% | 1004.6 hPa | 7.11 mm | - | 25 W/m² | - |
| 1777987411 | 15° C | 98% | 1004.6 hPa | 8.89 mm | - | 17 W/m² | - |
| 1777987108 | 15° C | 97% | 1004.8 hPa | 16.76 mm | - | 9 W/m² | - |
| 1777986806 | 15.56° C | 95% | 1004.8 hPa | 21.59 mm | - | 9 W/m² | - |
| 1777986503 | 15.56° C | 93% | 1004.9 hPa | 7.87 mm | - | 5 W/m² | - |
| 1777986201 | 16.11° C | 92% | 1004.6 hPa | 1.27 mm | - | 4 W/m² | - |
| 1777985898 | 16.11° C | 89% | 1004.6 hPa | 1.78 mm | - | 8 W/m² | - |
| 1777985595 | 16.67° C | 87% | 1004.5 hPa | 1.78 mm | - | 8 W/m² | - |
| 1777985292 | 16.67° C | 85% | 1004.4 hPa | 0 mm | - | 8 W/m² | - |
| 1777984989 | 17.22° C | 83% | 1004.2 hPa | 0 mm | - | 7 W/m² | - |
* Rain latest hour (hover to see other rain measurements)
** Current wind speed in m/s (hover to see current wind gust speed)